Temperature
15 15 15 15 16 16 16 16 16 16 16 16 16 16 16 16 16 16 16 16 16 16 15 15 15 15 15 15 15 15 15 15 14 14 14 14 14 14 14 14 14 14 14
16 15 15 15 15 16 16 16 16 16 16 16 16 16 16 16 16 16 16 16 15 15 15 15 15 15 15 15 15 15 15 14 14 14 14 14 14 14 14 14 14 14 14
15 15 15 15 15 15 16 16 16 16 16 16 16 16 16 16 15 15 15 15 15 15 15 15 15 15 15 15 15 15 14 14 14 14 14 14 14 13 13 13 13 13 13
15 15 15 15 15 15 16 16 16 16 16 15 15 15 15 15 15 15 15 15 15 15 15 15 15 15 15 15 14 14 14 14 14 14 14 13 13 13 13 13 13 13 13
15 15 15 15 15 15 15 15 15 16 15 15 15 15 15 15 15 15 15 15 15 15 15 15 15 15 14 14 14 14 14 14 14 14 14 13 13 13 13 13 13 13 13
15 15 15 15 15 15 15 15 15 15 15 15 15 15 15 15 15 15 15 15 15 15 15 15 15 14 14 14 14 14 14 14 14 14 14 13 13 13 13 13 13 13 13
15 15 14 14 14 14 15 15 15 15 15 15 15 15 15 15 15 15 15 15 15 15 15 14 14 14 14 14 14 14 14 14 14 13 13 13 13 13 13 12 12 12 12
14 14 14 14 14 14 14 14 14 14 15 14 15 15 15 15 14 14 14 14 15 14 14 14 14 14 14 14 14 14 14 13 13 13 13 13 13 12 12 12 12 12 12
14 14 14 14 14 14 14 14 14 14 14 14 14 15 15 14 14 14 14 14 14 14 14 14 14 14 14 14 13 13 13 13 13 13 13 12 12 12 12 12 12 11 11
13 13 13 13 13 14 14 14 14 14 14 14 14 14 14 14 14 14 14 14 14 14 14 13 13 13 13 13 13 13 13 13 13 13 13 12 12 12 11 11 11 11 11
12 13 13 13 13 13 13 13 13 13 13 14 14 14 14 14 14 14 14 13 13 13 13 13 13 13 13 13 13 13 13 13 13 12 12 12 12 12 11 11 11 11 11
12 12 12 12 13 13 13 13 13 13 13 13 13 13 13 13 13 13 13 13 13 13 13 13 13 13 13 13 13 13 13 13 12 12 12 12 12 11 11 11 11 11 11
12 12 12 12 12 12 13 12 13 13 13 13 13 13 13 13 13 13 13 13 13 13 13 13 13 12 12 13 13 12 12 12 12 12 12 12 11 11 11 11 11 11 11
11 12 12 12 12 12 12 12 12 12 12 12 12 13 13 13 13 13 13 13 12 12 12 12 12 12 12 12 12 12 12 12 12 12 12 11 11 11 11 11 11 11 10
11 11 11 11 11 12 12 12 12 12 12 12 12 12 12 12 12 12 12 12 12 12 12 12 12 12 12 12 12 12 12 12 12 12 12 11 11 11 11 11 11 10 10
10 11 11 11 11 11 11 11 11 12 12 12 12 12 12 12 12 12 12 12 12 12 12 11 11 11 11 11 11 11 11 11 11 11 11 11 11 11 11 10 10 10 10
10 10 10 10 11 11 11 11 11 11 11 11 11 11 11 11 11 11 11 11 11 11 11 11 11 11 11 11 11 11 11 11 11 11 11 11 11 11 10 10 10 10 9
10 10 10 10 10 10 10 10 10 10 10 11 11 11 11 11 11 11 11 11 11 11 11 11 10 11 10 10 10 10 10 10 10 10 10 10 10 10 10 10 10 9 9
9 9 9 9 9 10 10 10 10 10 10 10 10 10 10 10 10 10 10 10 10 10 10 10 10 10 10 10 10 10 10 10 10 10 10 10 10 10 9 9 9 9 9
8 8 9 9 9 9 9 9 9 9 9 9 9 9 9 9 9 10 10 10 10 10 10 10 10 10 10 10 9 9 9 9 9 9 9 9 9 9 9 9 9 9 9
8 8 8 8 8 8 8 8 8 8 8 8 9 9 9 9 9 9 9 9 9 9 10 9 9 9 9 9 9 9 9 9 9 9 9 9 9 8 8 8 8 8 8
7 7 7 7 7 7 7 7 7 7 8 8 8 8 8 8 8 8 8 9 9 9 9 9 9 9 9 8 8 8 8 8 8 8 8 8 8 8 8 8 8 8 8
7 7 7 7 7 7 7 7 7 7 7 7 7 7 8 8 8 8 8 8 8 8 8 8 8 8 8 8 7 7 7 7 7 7 7 7 7 7 7 7 7 7 7
6 6 6 6 6 6 6 6 7 6 7 7 7 7 7 7 7 7 7 7 7 8 8 8 8 7 7 7 7 7 6 6 6 6 7 7 7 7 7 7 7 7 6
5 5 5 5 5 6 6 6 6 6 6 6 6 6 6 7 7 7 7 7 7 7 7 7 7 7 7 6 6 6 6 6 6 5 5 6 6 7 6 6 6 6 6
5 5 5 5 5 5 5 5 5 5 5 6 6 6 6 6 6 6 6 6 6 6 6 6 6 6 6 6 6 6 6 5 5 5 5 5 5 6 6 6 6 6 5
Wind_Speed
3 3 6 7 10 11 11 12 12 12 12 13 13 13 13 13 13 14 14 13 14 14 13 13 13 13 13 13 13 13 13 13 13 13 13 13 13 14 14 13 13 11 13
5 6 8 8 10 11 11 11 11 12 12 12 12 13 13 12 12 13 13 13 13 13 13 13 12 12 12 12 12 12 12 12 12 12 12 11 12 13 13 12 12 10 12
6 6 8 8 10 10 11 11 12 12 11 12 12 12 12 12 12 13 12 12 12 13 12 12 12 12 12 12 12 12 12 12 12 12 10 9 10 12 12 12 11 11 11
6 6 7 9 10 10 10 10 11 12 11 11 11 12 12 12 12 12 12 12 12 12 12 12 12 12 12 12 11 12 12 12 12 11 9 8 8 10 10 10 10 10 10
5 6 7 10 10 10 10 10 11 11 11 11 11 11 12 11 11 11 11 11 11 11 11 11 11 12 12 11 11 11 11 11 10 9 9 8 7 9 9 9 10 10 9
4 5 6 9 10 10 10 10 10 11 11 10 10 11 11 11 11 10 10 10 11 10 10 10 11 11 11 11 10 10 10 10 9 9 8 7 6 8 8 9 9 9 8
4 4 6 8 8 9 10 10 10 10 10 10 10 10 10 10 11 10 10 10 10 10 10 10 11 11 10 10 9 10 10 9 9 8 7 6 6 7 8 8 8 8 7
3 4 5 6 6 7 8 9 9 9 10 10 10 10 10 9 10 10 10 9 9 9 10 10 10 10 10 9 9 9 9 9 8 7 6 5 6 7 7 7 7 7 7
4 3 3 5 5 5 6 7 8 8 9 9 10 10 10 9 9 9 9 9 9 9 9 9 9 9 9 8 8 8 9 8 8 6 5 4 5 6 6 6 6 6 5
5 4 3 3 4 4 4 6 7 8 9 9 9 10 10 9 9 9 8 8 8 8 8 9 8 8 8 7 7 8 8 7 7 5 4 4 5 5 6 6 5 5 4
5 4 3 3 3 3 4 4 6 6 8 8 8 9 9 7 7 7 7 8 8 8 8 8 8 7 7 6 6 6 6 6 5 4 3 4 5 5 5 5 4 4 4
3 4 3 3 2 3 2 2 3 4 5 6 6 7 6 6 6 6 7 7 7 7 8 7 7 6 5 4 5 5 5 5 4 3 3 4 5 4 3 3 4 3 3
1 2 3 4 2 2 2 2 2 3 3 4 5 6 6 6 5 5 5 5 5 6 5 5 5 4 3 3 3 3 3 4 3 2 2 3 4 4 3 3 3 2 2
2 2 2 4 3 2 2 1 2 2 2 2 4 6 5 4 3 3 3 3 4 4 4 4 3 3 3 3 3 2 2 2 2 2 2 3 3 4 3 3 2 3 2
2 2 3 3 3 2 2 1 2 1 2 2 3 4 5 4 4 3 3 3 3 3 3 3 3 3 2 2 2 2 1 1 1 1 2 3 3 4 4 4 3 2 3
2 2 2 2 4 2 1 1 1 1 1 2 3 3 5 5 4 4 4 3 3 3 3 3 3 3 2 2 1 1 1 2 2 2 2 2 3 3 4 4 3 4 3
1 1 2 1 3 2 1 1 1 1 2 2 2 3 4 4 4 4 4 3 3 4 3 3 2 2 2 1 1 1 1 1 2 2 2 2 2 3 3 4 4 4 4
1 1 1 1 1 1 1 1 1 0 1 1 1 2 3 4 4 4 4 4 3 4 3 3 3 2 1 1 1 1 0 1 1 2 2 2 1 1 2 3 4 4 5
1 1 1 1 0 0 1 1 1 1 0 1 1 1 2 3 4 3 3 3 4 3 3 3 2 2 2 1 1 1 1 1 1 1 1 2 2 2 2 3 4 4 5
1 1 1 1 0 1 1 2 1 1 1 0 1 1 1 2 2 3 2 4 5 4 3 3 3 2 2 1 1 1 2 1 1 1 2 2 2 2 3 3 4 5 6
3 2 2 1 1 1 1 1 0 1 1 1 0 1 1 2 2 1 2 2 4 4 4 4 3 2 1 2 1 1 2 2 1 1 1 1 1 2 2 3 4 4 5
2 2 2 1 0 0 1 1 1 0 1 1 0 1 1 2 2 2 2 2 2 3 4 4 3 2 1 1 2 1 1 2 2 2 1 1 1 1 1 3 4 4 5
3 2 2 1 1 1 1 1 2 1 1 0 0 1 1 1 1 2 2 2 2 3 4 4 4 3 3 2 1 2 2 2 2 2 2 2 2 1 2 3 4 5 6
2 2 2 2 1 1 1 1 1 1 1 1 1 1 1 1 1 1 2 2 2 3 4 5 4 3 3 3 1 1 1 2 1 2 3 2 2 3 3 3 3 5 6
3 2 2 2 2 2 1 2 2 1 0 1 1 1 1 1 1 1 2 2 3 3 4 4 4 4 3 4 3 1 1 0 1 2 3 3 3 3 3 3 3 4 5
3 3 3 3 2 2 2 1 2 2 1 1 1 1 1 1 1 1 2 2 3 3 3 4 4 5 4 4 3 3 2 2 2 2 3 4 4 4 4 3 3 3 5
Wind_Direction
182 189 153 133 124 123 119 115 115 118 117 116 114 113 110 108 109 110 114 116 116 113 111 109 108 106 104 104 105 103 100 98 95 93 93 94 94 93 92 89 87 83 85
171 173 148 134 124 120 121 120 120 117 118 119 118 117 115 113 112 111 111 114 115 114 113 111 110 109 108 108 107 105 104 100 98 94 92 91 95 95 94 92 90 88 86
148 155 145 137 126 122 121 123 125 121 117 119 121 119 118 117 116 115 112 113 115 116 115 114 112 110 110 110 108 108 106 103 100 96 93 88 94 96 94 93 92 89 87
142 145 146 139 131 125 123 124 128 125 123 120 121 123 122 120 118 116 115 114 115 117 116 113 112 112 111 111 110 111 109 105 102 99 93 89 94 98 96 96 93 90 86
128 135 147 140 134 130 127 124 128 129 128 126 124 127 127 125 122 120 118 116 115 118 118 116 114 113 113 112 112 113 113 107 103 98 96 95 95 102 100 98 95 91 88
123 134 144 141 142 139 136 131 127 130 129 127 127 127 129 128 126 124 122 118 116 117 116 115 114 115 113 111 111 113 113 108 103 97 97 101 103 110 107 104 100 98 94
112 126 144 143 146 146 142 140 134 136 136 132 128 125 124 127 125 124 121 119 117 116 117 116 114 112 110 110 106 106 109 107 102 99 97 105 116 119 115 112 108 103 100
103 115 125 136 139 148 152 147 143 142 141 140 137 134 128 128 129 127 124 121 120 120 121 118 117 117 114 109 102 100 104 106 104 103 99 104 116 122 124 121 116 110 105
70 79 110 124 133 135 146 152 152 149 147 142 142 140 135 133 135 133 129 126 124 121 123 120 117 117 118 111 102 101 100 101 104 111 114 113 120 124 120 117 114 111 107
55 45 56 90 113 120 128 146 150 150 149 147 146 142 140 136 138 136 130 132 131 125 126 125 122 119 120 116 105 102 101 95 100 109 117 129 131 132 128 123 119 113 103
39 32 34 48 74 103 119 138 146 147 150 151 148 145 142 137 136 135 134 133 137 135 132 127 123 120 121 116 106 103 100 92 102 109 127 133 135 137 133 128 128 125 119
27 18 16 34 52 86 119 123 134 143 142 143 145 146 143 137 137 139 142 139 137 137 136 130 123 120 109 102 103 101 100 95 102 113 132 138 142 144 145 143 143 141 133
22 19 8 21 38 77 87 114 108 121 129 135 143 146 141 134 134 132 138 139 132 132 126 125 113 105 95 91 99 101 106 106 110 126 150 162 166 165 159 157 164 166 169
33 24 17 28 27 60 84 107 108 117 127 132 145 147 137 132 134 135 136 135 134 136 128 121 112 104 97 107 114 111 104 112 123 144 172 180 189 189 190 186 195 204 203
31 15 19 27 28 31 63 72 91 123 148 143 146 150 145 143 154 152 149 142 143 141 142 141 131 125 119 110 122 119 126 139 148 161 191 196 200 210 216 222 228 226 232
20 14 17 36 22 26 52 48 62 89 118 139 141 151 151 149 157 163 160 156 151 155 153 154 152 148 149 137 136 119 150 178 175 186 197 208 213 222 227 228 232 238 245
348 18 23 33 27 24 19 17 60 103 127 148 164 162 154 152 156 162 160 160 161 154 146 140 130 122 135 132 149 157 152 179 177 193 203 208 217 235 241 247 248 248 249
32 4 6 18 40 19 13 360 15 61 141 155 152 158 160 156 158 160 160 162 157 147 145 151 146 144 147 158 205 254 245 186 173 190 180 179 194 234 252 262 267 265 263
57 15 24 29 107 20 19 4 351 26 126 173 149 138 164 173 167 167 173 167 155 153 156 155 144 154 167 190 225 247 253 232 230 183 173 187 199 235 249 262 265 271 280
33 37 49 12 26 41 33 25 14 15 320 217 165 162 153 173 172 166 176 171 160 160 163 156 155 153 168 175 197 275 271 262 250 216 217 205 218 234 244 255 266 273 279
26 30 43 18 329 57 57 51 317 272 246 231 219 126 137 141 138 128 160 173 165 168 167 164 162 160 139 111 96 342 327 306 282 258 222 185 229 249 257 257 264 273 280
25 17 26 19 318 256 229 190 196 241 242 202 18 33 110 140 135 130 117 144 153 156 152 157 155 164 157 133 131 112 322 322 320 291 264 233 247 268 280 277 275 274 275
14 4 345 330 329 348 32 75 57 49 21 67 31 297 311 183 154 138 146 142 163 170 168 171 171 171 183 209 160 146 161 237 296 300 276 257 256 252 263 274 270 270 272
339 348 355 3 5 358 81 119 127 160 220 261 280 271 296 273 185 175 168 175 180 185 184 185 178 175 172 192 225 227 200 175 207 290 300 296 293 270 267 282 280 276 275
358 2 5 27 18 14 59 136 147 154 176 325 350 340 299 286 251 196 191 199 203 205 206 197 185 179 180 194 195 202 225 255 193 218 270 290 302 281 273 266 263 269 279
9 9 9 26 24 33 51 86 128 139 120 72 356 322 313 284 262 232 212 217 220 220 217 212 202 194 197 199 205 195 188 191 216 216 252 274 285 288 285 267 259 262 277
Height
1505 1506 1507 1508 1509 1510 1511 1511 1512 1513 1514 1515 1516 1517 1517 1518 1519 1520 1521 1521 1522 1522 1523 1523 1524 1524 1524 1525 1525 1525 1526 1526 1526 1526 1527 1527 1527 1527 1528 1528 1528 1528 1528
1504 1505 1507 1508 1509 1510 1510 1511 1512 1513 1514 1515 1516 1517 1518 1518 1519 1520 1521 1522 1522 1523 1523 1524 1524 1525 1525 1525 1526 1526 1526 1526 1527 1527 1528 1528 1528 1528 1528 1529 1529 1529 1529
1504 1505 1506 1507 1509 1509 1510 1511 1512 1513 1514 1515 1516 1517 1518 1519 1519 1520 1521 1522 1523 1523 1524 1524 1525 1525 1526 1526 1526 1526 1527 1527 1527 1528 1528 1528 1529 1529 1529 1529 1529 1529 1529
1503 1505 1506 1507 1508 1509 1510 1511 1512 1513 1514 1515 1516 1517 1518 1519 1520 1520 1521 1522 1522 1523 1524 1524 1525 1526 1526 1526 1527 1527 1527 1528 1528 1528 1529 1529 1529 1530 1530 1530 1530 1530 1530
1503 1504 1505 1506 1508 1509 1509 1510 1512 1513 1514 1515 1516 1517 1518 1518 1519 1520 1521 1522 1522 1523 1524 1525 1525 1526 1526 1527 1527 1527 1527 1528 1528 1529 1529 1529 1530 1530 1530 1530 1530 1530 1530
1503 1504 1505 1506 1507 1508 1509 1510 1511 1512 1513 1514 1515 1516 1517 1518 1519 1520 1521 1522 1522 1523 1524 1524 1525 1526 1526 1527 1527 1527 1528 1528 1528 1529 1529 1530 1530 1531 1531 1530 1530 1530 1530
1502 1503 1504 1505 1506 1507 1508 1509 1510 1511 1512 1513 1514 1515 1516 1517 1518 1519 1520 1521 1522 1523 1524 1524 1525 1525 1526 1527 1527 1527 1528 1528 1529 1529 1529 1530 1530 1531 1530 1530 1530 1530 1530
1501 1502 1503 1504 1505 1506 1507 1508 1509 1510 1511 1512 1513 1514 1515 1516 1517 1518 1519 1520 1521 1522 1523 1524 1524 1525 1526 1526 1527 1527 1528 1528 1529 1529 1529 1530 1530 1530 1530 1530 1530 1530 1530
1500 1501 1502 1503 1504 1505 1506 1507 1508 1509 1510 1511 1512 1513 1514 1515 1516 1517 1518 1519 1521 1521 1522 1523 1524 1524 1525 1526 1526 1527 1527 1528 1528 1529 1529 1529 1530 1530 1530 1530 1530 1529 1529
1498 1499 1500 1502 1503 1504 1504 1506 1507 1508 1509 1510 1511 1512 1513 1514 1515 1516 1517 1518 1520 1521 1521 1522 1523 1524 1525 1525 1526 1527 1527 1527 1528 1528 1528 1529 1529 1529 1529 1529 1529 1529 1528
1497 1497 1498 1499 1501 1502 1503 1504 1505 1506 1507 1509 1510 1510 1511 1512 1514 1515 1516 1517 1518 1519 1520 1521 1522 1523 1524 1525 1525 1526 1526 1526 1527 1528 1528 1528 1528 1529 1528 1528 1528 1528 1527
1496 1496 1497 1497 1498 1500 1501 1502 1503 1504 1505 1507 1508 1509 1510 1511 1512 1513 1515 1515 1516 1518 1519 1519 1521 1522 1523 1523 1524 1525 1525 1525 1526 1527 1527 1527 1527 1527 1527 1527 1527 1526 1526
1495 1494 1494 1495 1496 1498 1499 1500 1501 1502 1503 1505 1506 1507 1508 1509 1510 1511 1513 1514 1515 1516 1517 1518 1519 1520 1521 1522 1523 1523 1524 1524 1525 1525 1526 1526 1526 1526 1526 1526 1525 1525 1524
1493 1493 1493 1493 1494 1496 1497 1498 1499 1500 1501 1502 1503 1505 1506 1507 1508 1509 1510 1512 1513 1514 1515 1516 1517 1518 1519 1520 1521 1522 1522 1523 1523 1523 1524 1524 1525 1525 1524 1524 1524 1523 1523
1491 1491 1491 1491 1492 1494 1495 1496 1497 1498 1499 1500 1501 1503 1504 1505 1506 1507 1508 1509 1511 1512 1513 1514 1515 1516 1517 1518 1519 1520 1520 1521 1521 1522 1522 1522 1523 1523 1523 1522 1522 1521 1521
1490 1490 1490 1490 1491 1492 1493 1494 1495 1496 1496 1498 1499 1500 1501 1503 1504 1505 1506 1507 1508 1509 1510 1512 1513 1514 1515 1516 1517 1517 1518 1519 1519 1519 1520 1520 1520 1520 1520 1520 1520 1519 1519
1488 1488 1488 1489 1489 1490 1491 1492 1492 1493 1494 1495 1496 1498 1499 1500 1501 1502 1503 1504 1506 1507 1508 1509 1510 1511 1513 1513 1514 1515 1516 1516 1517 1517 1517 1518 1518 1518 1518 1518 1517 1517 1517
1486 1486 1486 1487 1487 1488 1488 1489 1489 1491 1491 1492 1493 1495 1496 1497 1499 1500 1501 1502 1503 1504 1505 1506 1508 1508 1509 1511 1511 1512 1513 1514 1514 1515 1515 1515 1515 1515 1515 1515 1515 1514 1514
1484 1484 1484 1484 1484 1485 1485 1486 1486 1487 1488 1489 1490 1492 1493 1494 1496 1497 1498 1499 1500 1501 1503 1504 1505 1506 1507 1508 1508 1509 1510 1511 1512 1512 1512 1512 1512 1512 1512 1512 1512 1512 1511
1483 1482 1482 1481 1481 1482 1482 1483 1484 1484 1485 1486 1487 1488 1490 1491 1492 1493 1495 1496 1497 1498 1500 1501 1502 1503 1504 1505 1506 1506 1507 1508 1508 1509 1509 1509 1509 1509 1509 1509 1509 1509 1508
1480 1480 1480 1479 1479 1479 1479 1480 1480 1481 1482 1483 1484 1485 1486 1488 1489 1490 1491 1492 1493 1494 1496 1498 1499 1500 1501 1502 1503 1503 1504 1505 1505 1505 1506 1506 1506 1506 1506 1506 1506 1505 1505
1478 1478 1477 1476 1476 1476 1477 1477 1477 1478 1479 1480 1481 1482 1483 1484 1486 1487 1488 1489 1490 1491 1492 1494 1496 1497 1498 1499 1500 1500 1501 1502 1501 1502 1502 1502 1502 1502 1502 1502 1502 1501 1501
1476 1475 1475 1474 1474 1473 1474 1475 1475 1475 1476 1477 1478 1479 1480 1481 1482 1484 1484 1486 1487 1488 1489 1491 1493 1494 1494 1496 1497 1498 1498 1497 1498 1498 1498 1498 1498 1498 1498 1498 1498 1497 1497
1474 1474 1473 1472 1471 1471 1471 1471 1472 1472 1472 1473 1475 1476 1477 1478 1479 1481 1482 1483 1484 1485 1486 1487 1489 1490 1491 1492 1494 1495 1496 1495 1496 1494 1494 1494 1494 1494 1494 1494 1493 1493 1493
1473 1472 1471 1470 1469 1468 1468 1469 1469 1470 1470 1471 1472 1473 1474 1475 1476 1477 1478 1479 1480 1481 1483 1483 1484 1486 1487 1489 1490 1490 1491 1492 1492 1492 1490 1490 1490 1490 1490 1489 1489 1489 1488
1471 1470 1470 1468 1468 1467 1466 1466 1467 1467 1467 1468 1469 1470 1470 1471 1472 1473 1474 1475 1477 1478 1479 1480 1481 1482 1484 1485 1486 1486 1487 1487 1487 1488 1486 1485 1485 1485 1485 1485 1485 1484 1483